Grand Forks Air Force Base, ND

2:12 AM CDT on July 27, 2016 (GMT -0500)
Grand Forks Air Force Base

Weather History for KRDR - March, 2014

Change the Weather History Date:

Monday, March 10, 2014

  Actual Average Record
Temperature  
Mean Temperature 40 °F -  
Max Temperature 44 °F 24 °F 57 °F (2012)
Min Temperature 35 °F 7 °F -13 °F (2003)
Degree Days  
Heating Degree Days 25    
Moisture  
Dew Point 33 °F    
Average Humidity 76    
Maximum Humidity 83    
Minimum Humidity 63    
Precipitation  
Precipitation 0.00 in - - ()
Sea Level Pressure  
Sea Level Pressure 29.67 in    
Wind  
Wind Speed 12 mph (WNW)    
Max Wind Speed 16 mph    
Max Gust Speed -    
Visibility 10 miles    
Events      
Averages and records for this station are not official NWS values.
T = Trace of Precipitation, MM = Missing Value Source: NWS Daily Summary

Daily Weather History Graph

Daily Weather History Graph

Search for Another Location

Airport or City:

Trip Planner

Search our weather history database for the weather conditions in past years. The results will help you decide how hot, cold, wet, or windy it might be!

Date:

Astronomy

Mar. 10, 2014 Rise Set
Actual Time 7:52 AM CDT 7:27 PM CDT
Civil Twilight 7:21 AM CDT 7:58 PM CDT
Nautical Twilight 6:45 AM CDT 8:34 PM CDT
Astronomical Twilight 6:09 AM CDT 9:11 PM CDT
Moon 1:54 PM CDT (3/10) 4:23 AM CDT (3/10)
Length of Visible Light 12h 36m
Length of Day
11h 35m
Waxing Gibbous, 70% of the Moon is Illuminated
Mar 10
Waxing Gibbous
Mar 16
Full
Mar 23
Last Quarter
Mar 30
New
Apr 7
First Quarter

Hourly Weather History & Observations

Time (CDT) Temp. Windchill Dew Point Humidity Pressure Visibility Wind Dir Wind Speed Gust Speed Precip Events Conditions
12:58 AM 37.9 °F 30.9 °F 32.9 °F 82% 29.55 in 10.0 mi WNW 10.4 mph - N/A   Clear
1:58 AM 40.3 °F 32.2 °F 34.0 °F 78% 29.56 in 10.0 mi West 15.0 mph - N/A   Clear
2:58 AM 41.0 °F 33.1 °F 34.2 °F 77% 29.56 in 10.0 mi WNW 15.0 mph - N/A   Clear
3:58 AM 39.9 °F 32.1 °F 34.0 °F 79% 29.56 in 10.0 mi WNW 13.8 mph - N/A   Clear
4:58 AM 39.7 °F 32.3 °F 33.8 °F 79% 29.58 in 10.0 mi NW 12.7 mph - N/A   Clear
5:58 AM 38.7 °F 30.9 °F 33.4 °F 81% 29.60 in 10.0 mi WNW 12.7 mph - N/A   Clear
6:58 AM 39.2 °F 30.8 °F 32.5 °F 77% 29.62 in 10.0 mi NW 15.0 mph - N/A   Clear
7:58 AM 37.4 °F 28.9 °F 32.0 °F 81% 29.65 in 10.0 mi WNW 13.8 mph - N/A   Clear
8:58 AM 37.9 °F 30.0 °F 32.2 °F 80% 29.65 in 10.0 mi WNW 12.7 mph - N/A   Clear
9:58 AM 39.6 °F 32.5 °F 32.4 °F 75% 29.68 in 10.0 mi WNW 11.5 mph - N/A   Clear
10:58 AM 40.6 °F 33.0 °F 32.4 °F 72% 29.68 in 10.0 mi WNW 13.8 mph - N/A   Clear
11:58 AM 41.5 °F 34.6 °F 32.4 °F 70% 29.69 in 10.0 mi WNW 12.7 mph - N/A   Clear
12:58 PM 42.6 °F 35.6 °F 32.4 °F 67% 29.70 in 10.0 mi West 13.8 mph - N/A   Clear
1:58 PM 44.1 °F 36.8 °F 32.4 °F 63% 29.70 in 10.0 mi West 16.1 mph - N/A   Clear
2:58 PM 43.3 °F 35.8 °F 32.9 °F 67% 29.70 in 10.0 mi WNW 16.1 mph - N/A   Clear
3:58 PM 41.9 °F 34.3 °F 33.6 °F 72% 29.69 in 10.0 mi WNW 15.0 mph - N/A   Clear
4:58 PM 41.4 °F 34.7 °F 32.7 °F 71% 29.70 in 10.0 mi WNW 11.5 mph - N/A   Clear
5:58 PM 40.3 °F 34.4 °F 31.8 °F 72% 29.71 in 10.0 mi WNW 9.2 mph - N/A   Clear
6:58 PM 39.2 °F 33.6 °F 31.6 °F 74% 29.72 in 10.0 mi WNW 8.1 mph - N/A   Clear
7:58 PM 37.6 °F 30.0 °F 31.6 °F 79% 29.73 in 10.0 mi WNW 11.5 mph - N/A   Clear
8:58 PM 36.7 °F 29.9 °F 31.5 °F 81% 29.76 in 10.0 mi WNW 9.2 mph - N/A   Clear
9:58 PM 36.3 °F 30.8 °F 31.6 °F 83% 29.78 in 10.0 mi NNW 6.9 mph - N/A   Clear
10:58 PM 36.3 °F 30.1 °F 31.5 °F 83% 29.79 in 10.0 mi NW 8.1 mph - N/A   Clear
11:58 PM 35.8 °F 29.4 °F 31.1 °F 83% 29.80 in 10.0 mi NNW 8.1 mph - N/A   Clear